Flag for Germany Weather past 2 weeks in Fürstenwalde/Spree, Brandenburg, Germany

Now
34 °F

Light rain. Low clouds.


Feels Like: 28 °F
Forecast: 37 / 44 °F
Wind: 6 mph from South

Location: Lindenberg

Current Time: Mar 31, 2015 at 11:03:49 AM

Latest Report: Mar 31, 2015 at 10:00 AM


Visibility: 4 mi

Pressure: 29.09 "Hg

Humidity: 100%

Dew point: 34 °F

Location of Fürstenwalde/SpreeLocation

Historic Weather in Fürstenwalde/Spree — Graph

°F

Fürstenwalde/Spree temperature yesterday

Maximum temperature yesterday: 49 °F (at 12:00 AM)
Minimum temperature yesterday: 37 °F (at 10:00 AM)
Average temperature yesterday: 44 °F

Past Weeks' High & Low Weather Summary

 TemperatureHumidityPressure
High62 °F (Mar 17, 3:00 PM)100% (Mar 31, 9:00 AM)30.50 "Hg (Mar 31, 9:00 AM)
Low28 °F (Mar 22, 7:00 AM)20% (Mar 18, 3:00 PM)29.09 "Hg (Mar 30, 12:00 AM)
Average44 °F67%29.99 "Hg
* Reported Mar 16 9:00 AM — Mar 31 10:00 AM, Fürstenwalde/Spree, Weather by CustomWeather, © 2015

Note: Actual official high and low records may vary slightly from our data, if they occured in-between our weather recording intervals... More about our weather records

Advertising

Fürstenwalde/Spree weather history for previous 24 hours

 ConditionsComfort  
Time TempWeatherWind HumidityBarometerVisibility
10:00 AM
Tue, Mar 31
34 °FLight rain. Low clouds.6 mph100%29.09 "Hg4 mi
9:00 AM33 °FSnow. Low clouds.6 mph100%29.18 "Hg1 mi
8:00 AM33 °FSnow. Low clouds.6 mph99%29.26 "Hg1 mi
7:00 AM36 °FLight rain. Low clouds.7 mph88%29.35 "Hg3 mi
6:00 AM38 °FOvercast.5 mph77%29.41 "Hg19 mi
4:00 AM37 °FOvercast.5 mph79%29.59 "Hg25 mi
3:00 AM37 °FOvercast.6 mph82%29.64 "Hg25 mi
2:00 AM37 °FPassing clouds.6 mph75%29.66 "Hg25 mi
1:00 AM38 °FClear.8 mph74%29.67 "Hg25 mi
12:00 AM40 °FPassing clouds.10 mph71%29.65 "Hg31 mi
10:00 PM
Mon, Mar 30
41 °FPassing clouds.10 mph72%29.61 "Hg31 mi
9:00 PM41 °FPassing clouds.10 mph74%29.59 "Hg31 mi
8:00 PM42 °FPassing clouds.9 mph75%29.54 "Hg31 mi
7:00 PM43 °FPartly sunny.9 mph76%29.50 "Hg25 mi
6:00 PM46 °FPartly sunny.10 mph57%29.44 "Hg25 mi
4:00 PM43 °FLight rain. Overcast.12 mph82%29.38 "Hg12 mi
3:00 PM44 °FLight rain. Overcast.12 mph76%29.35 "Hg19 mi
2:00 PM43 °FLight rain. Overcast.12 mph79%29.32 "Hg19 mi
1:00 PM45 °FSprinkles. Overcast.12 mph66%29.29 "Hg25 mi
12:00 PM44 °FOvercast.12 mph68%29.26 "Hg25 mi
Weather by CustomWeather, © 2015

See weather overviewHow to use our weather pages